Regional Weather Roundup
Issued by NWS

Home | Current Version | Previous Version | Text Only | Print | Product List | Glossary Off
Versions: 1 2 3 4 5 6 7 8 9 10 11 12 13 14 15 16 17 18 19 20 21 22 23 24 25 26 27 28 29 30 31 32 33 34 35 36 37 38 39 40 41 42 43 44 45 46 47 48 49 50

000
ASUS43 KDTX 290910
RWRMI
MICHIGAN HOURLY REGIONAL WEATHER ROUNDUP
NATIONAL WEATHER SERVICE DETROIT/PONTIAC MI
500 AM EDT FRI AUG 29 2014

NOTE: "FAIR" INDICATES FEW OR NO CLOUDS BELOW 12,000 FEET WITH NO
SIGNIFICANT WEATHER AND/OR OBSTRUCTION TO VISIBILITY.

MIZ047>049-052>055-059>063-066>070-074>076-081>083-291000-
SOUTHEAST LOWER MICHIGAN

CITY           SKY/WX    TMP DP  RH WIND       PRES   REMARKS
ADRIAN         CLEAR     59  51  75 S3        30.11S
ALMA           CLOUDY    60  55  84 SE6       30.09F
ANN ARBOR      CLEAR     57  52  83 CALM      30.11F
BAD AXE        MOCLDY    52  52  99 CALM      30.13F
DETROIT CITY   PTCLDY    62  54  74 SE3       30.13S
DETROIT        PTCLDY    59  54  83 E6        30.12S
FLINT          MOCLDY    60  52  74 E6        30.11F
GROSSE ILE     PTCLDY    61  55  82 E3        30.11S
HILLSDALE      PTCLDY    60  53  79 SE6       30.10R
HOWELL         PTCLDY    57  55  92 SE6       30.10S

CITY           SKY/WX    TMP DP  RH WIND       PRES   REMARKS
JACKSON        PTCLDY    61  51  70 SE9       30.09F
LAMBERTVILLE   CLEAR     61  50  67 SE5       30.11S
LANSING        CLOUDY    62  54  74 SE12      30.08F
LAPEER         NOT AVBL
MASON          PTCLDY    58  55  87 SE6       30.09F
MONROE         PTCLDY    55  54  94 CALM      30.10S
MT. CLEMENS    PTCLDY    60  53  78 E7        30.12S
PONTIAC        PTCLDY    58  52  80 E5        30.12S
PORT HOPE        N/A     56  51  84 SW3       30.11F
PORT HURON     MOCLDY    50  50 100 CALM      30.14S
TRI CITIES     CLOUDY    60  51  72 SE7       30.11F
YPSILANTI      CLEAR     60  53  77 E3        30.12S
$$
MIZ043>046-050>051-056>058-064>065-071>073-077>080-291000-
SOUTHWEST LOWER MICHIGAN

CITY           SKY/WX    TMP DP  RH WIND       PRES   REMARKS
BATTLE CREEK   MOCLDY    63  55  75 SE6       30.08S
BENTON HARBOR  CLOUDY    66  60  81 SE10      30.02R
BIG RAPIDS     CLOUDY    59  56  90 E12       30.07S
COLDWATER      CLOUDY    62  52  68 SE6       30.08S
HOLLAND        MOCLDY    66  58  75 SE6       30.04S
GRAND RAPIDS   CLOUDY    62  59  90 SE7       30.06S
KALAMAZOO      MOCLDY    64  56  75 SE5       30.07S
MARSHALL       PTCLDY    60  51  72 SE7       30.08S
MUSKEGON       MOCLDY    64  53  67 SE8       30.03S
$$
MIZ016>042-291000-
NORTHERN LOWER MICHIGAN

CITY           SKY/WX    TMP DP  RH WIND       PRES   REMARKS
ALPENA         CLOUDY    52  49  89 CALM      30.11F
BEAVER ISLAND  CLOUDY    59  56  88 SE6       30.05F
BELLAIRE       CLOUDY    59  53  80 CALM      30.06F
CADILLAC       CLOUDY    58  54  84 SE7       30.08S
CHARLEVOIX     CLOUDY    60  53  79 SE7       30.08F
FRANKFORT      CLOUDY    64  51  61 SE3       30.03F
GAYLORD        CLOUDY    54  51  90 SE6       30.10F
GRAYLING       CLOUDY    56  54  94 E3        30.10S
HARBOR SPRINGS CLOUDY    58  52  79 E5        30.07F
HOUGHTON LAKE  MOCLDY    55  51  86 E5        30.10F
MANISTEE       CLOUDY    61  52  72 E6        30.03F
OSCODA         CLOUDY    55  52  88 CALM      30.11F
PELLSTON       CLOUDY    52  50  93 CALM      30.07F
TRAVERSE CITY  CLOUDY    62  52  69 VRB3      30.04F
$$
MIZ007>008-015-291000-
EASTERN UPPER MICHIGAN

CITY           SKY/WX    TMP DP  RH WIND       PRES   REMARKS
KINROSS        CLOUDY    54  52  94 SE5       30.08F
MACKINAC ISLAN CLOUDY    57  53  85 S8        30.07F
NEWBERRY       CLOUDY    52  51  95 S6        30.06S
S. S. MARIE    MOCLDY    51  49  92 E6        30.08F
$$
MIZ004>006-011>014-085-291000-
CENTRAL UPPER MICHIGAN

CITY           SKY/WX    TMP DP  RH WIND       PRES   REMARKS
MANISTIQUE     CLOUDY    61  55  81 SE7       30.03F
ESCANABA       CLOUDY    63  55  77 SE9       30.02F
MENOMINEE      CLOUDY    61  57  88 CALM      30.00F
SAWYER-GWINN   MOCLDY    57  54  90 S7        30.02F
$$
MIZ001>003-009>011-084-291000-
WESTERN UPPER MICHIGAN

CITY           SKY/WX    TMP DP  RH WIND       PRES   REMARKS
IRON MOUNTAIN  LGT RAIN  58  56  93 SE6       30.00F
HOUGHTON       CLOUDY    59  56  89 SE7       29.96F
COPPER HARBOR    N/A     61  57  87 SW8       29.96F
$$

ABBREVIATIONS USED IN REMARKS
   TC - TEMPERATURE IN CELSIUS
  WCI - WIND CHILL INDEX
   HX - HEAT INDEX
  VSB - VISIBILITY




USA.gov is the U.S. government's official web portal to all federal, state and local government web resources and services.